Flag for U.S.A. Weather past 2 weeks in Citrus Heights, California, U.S.A.

Now
88 °F

Sunny.


Feels Like: 86 °F
Forecast: 57 / 89 °F
Wind: 13 mph from Southwest

Location: Mather Field

Current Time: Aug 22, 2014 at 5:34:44 PM

Latest Report: Aug 22, 2014 at 3:55 PM


Visibility: 10 mi

Pressure: 29.82 "Hg

Humidity: 33%

Dew point: 55 °F

Location of Citrus HeightsLocation

Historic Weather in Citrus Heights — Graph

°F

Citrus Heights temperature yesterday

Maximum temperature yesterday: 88 °F (at 3:45 PM)
Minimum temperature yesterday: 55 °F (at 4:45 AM)
Average temperature yesterday: 71 °F

Past Weeks' High & Low Weather Summary

 TemperatureHumidityPressure
High95 °F (Aug 11, 3:45 PM)100% (Aug 10, 4:45 AM)30.01 "Hg (Aug 10, 4:45 AM)
Low54 °F (Aug 10, 4:45 AM)15% (Aug 17, 5:46 PM)29.72 "Hg (Aug 18, 5:48 PM)
Average74 °F55%29.88 "Hg
* Reported Aug 7 3:52 PM — Aug 22 3:55 PM, Citrus Heights, Weather by CustomWeather, © 2014

Note: Actual official high and low records may vary slightly from our data, if they occured in-between our weather recording intervals... More about our weather records

Advertising

Citrus Heights weather history for previous 24 hours

 ConditionsComfort  
Time TempWeatherWind HumidityBarometerVisibility
3:55 PM
Aug 22
88 °FSunny.13 mph33%29.82 "Hg10 mi
2:55 PM86 °FSunny.12 mph33%29.83 "Hg10 mi
1:45 PM84 °FSunny.13 mph37%29.86 "Hg10 mi
12:59 PM82 °FSunny.9 mph40%29.86 "Hg10 mi
11:48 AM79 °FWarm.3 mph45%29.89 "HgN/A
10:45 AM73 °FSunny.7 mph57%29.90 "Hg10 mi
9:45 AM72 °FSunny.8 mph61%29.90 "Hg10 mi
8:45 AM68 °FSunny.7 mph69%29.90 "Hg10 mi
7:45 AM64 °FSunny.6 mph78%29.90 "Hg10 mi
6:45 AM61 °FClear.5 mph88%29.90 "Hg10 mi
5:46 AM63 °FClear.8 mph83%29.88 "Hg10 mi
4:50 AM63 °FClear.5 mph77%29.87 "Hg10 mi
3:49 AM63 °FClear.No wind77%29.89 "Hg10 mi
2:55 AM66 °FClear.7 mph68%29.88 "Hg10 mi
11:30 PM
Aug 21
68 °FClear.6 mph69%29.88 "Hg10 mi
10:45 PM72 °FClear.7 mph61%29.87 "Hg10 mi
9:45 PM73 °FClear.7 mph61%29.87 "Hg10 mi
8:45 PM77 °FSunny.7 mph47%29.86 "Hg10 mi
7:45 PM82 °FSunny.8 mph40%29.86 "Hg10 mi
6:50 PM86 °FSunny.8 mph35%29.85 "Hg10 mi
Weather by CustomWeather, © 2014

See weather overviewHow to use our weather pages